Time,TemperatureF,DewpointF,PressureIn,WindDirection,WindDirectionDegrees,WindSpeedMPH,WindSpeedGustMPH,Humidity,HourlyPrecipIn,Conditions,Clouds,dailyrainin,SolarRadiationWatts/m^2,SoftwareType,DateUTC
2013-05-27 00:00:00,37.1,-99.9,19.99,West,273,0.0,5.0,255,0.00,,,0.00,0,Wunderground v.1.15,2013-05-27 04:00:00,
2013-05-27 00:05:00,37.1,-99.9,19.99,West,273,0.0,5.0,255,0.00,,,0.00,0,Wunderground v.1.15,2013-05-27 04:05:00,
2013-05-27 00:10:00,37.0,-99.9,19.99,West,273,0.0,5.0,255,0.00,,,0.00,0,Wunderground v.1.15,2013-05-27 04:10:00,
2013-05-27 00:15:00,36.9,-99.9,19.99,West,273,0.0,5.0,255,0.00,,,0.00,0,Wunderground v.1.15,2013-05-27 04:15:00,
2013-05-27 00:20:00,37.2,-99.9,19.99,West,273,0.0,5.0,255,0.00,,,0.00,0,Wunderground v.1.15,2013-05-27 04:20:00,
2013-05-27 00:25:00,36.9,-99.9,19.99,West,273,0.0,5.0,255,0.00,,,0.00,0,Wunderground v.1.15,2013-05-27 04:25:00,
2013-05-27 00:30:00,36.5,-99.9,19.99,West,273,0.0,5.0,255,0.00,,,0.00,0,Wunderground v.1.15,2013-05-27 04:30:00,
2013-05-27 00:35:00,36.4,-99.9,19.99,West,273,0.0,5.0,255,0.00,,,0.00,0,Wunderground v.1.15,2013-05-27 04:35:00,
2013-05-27 00:40:00,37.0,-99.9,19.99,West,273,0.0,5.0,255,0.00,,,0.00,0,Wunderground v.1.15,2013-05-27 04:40:00,
2013-05-27 00:50:00,37.5,-99.9,19.99,West,273,0.0,5.0,255,0.00,,,0.00,0,Wunderground v.1.15,2013-05-27 04:50:00,
2013-05-27 00:55:00,37.1,-99.9,19.99,West,273,0.0,5.0,255,0.00,,,0.00,0,Wunderground v.1.15,2013-05-27 04:55:00,
2013-05-27 01:05:00,36.9,-99.9,19.99,West,273,0.0,5.0,255,0.00,,,0.00,0,Wunderground v.1.15,2013-05-27 05:05:00,
2013-05-27 01:10:00,37.2,-99.9,19.99,West,273,1.0,5.0,255,0.00,,,0.00,0,Wunderground v.1.15,2013-05-27 05:10:00,
2013-05-27 01:15:00,38.1,-99.9,19.99,West,273,0.0,5.0,255,0.00,,,0.00,0,Wunderground v.1.15,2013-05-27 05:15:00,
2013-05-27 01:25:00,36.6,-99.9,19.99,West,273,0.0,5.0,255,0.00,,,0.00,0,Wunderground v.1.15,2013-05-27 05:25:00,
2013-05-27 01:30:00,36.7,-99.9,19.99,West,273,0.0,5.0,255,0.00,,,0.00,0,Wunderground v.1.15,2013-05-27 05:30:00,
2013-05-27 01:35:00,38.7,-99.9,19.99,West,273,3.0,5.0,255,0.00,,,0.00,0,Wunderground v.1.15,2013-05-27 05:35:00,
2013-05-27 01:40:00,38.2,-99.9,19.99,West,273,3.0,5.0,255,0.00,,,0.00,0,Wunderground v.1.15,2013-05-27 05:40:00,
2013-05-27 01:45:00,39.7,-99.9,19.99,West,273,0.0,5.0,255,0.00,,,0.00,0,Wunderground v.1.15,2013-05-27 05:45:00,
2013-05-27 01:50:00,40.4,-99.9,19.99,West,270,1.0,5.0,255,0.00,,,0.00,0,Wunderground v.1.15,2013-05-27 05:50:00,
2013-05-27 02:00:00,40.3,-99.9,19.99,WSW,256,3.0,5.0,255,0.00,,,0.00,0,Wunderground v.1.15,2013-05-27 06:00:00,
2013-05-27 02:10:00,40.3,-99.9,19.99,WSW,256,3.0,5.0,255,0.00,,,0.00,0,Wunderground v.1.15,2013-05-27 06:10:00,
2013-05-27 02:15:00,38.7,-99.9,19.99,WSW,256,2.0,5.0,255,0.00,,,0.00,0,Wunderground v.1.15,2013-05-27 06:15:00,
2013-05-27 02:20:00,37.5,-99.9,19.99,WSW,256,0.0,5.0,255,0.00,,,0.00,0,Wunderground v.1.15,2013-05-27 06:20:00,
2013-05-27 02:25:00,36.5,-99.9,19.99,WSW,256,0.0,5.0,255,0.00,,,0.00,0,Wunderground v.1.15,2013-05-27 06:25:00,
2013-05-27 02:35:00,36.9,-99.9,20.00,WSW,256,0.0,5.0,255,0.00,,,0.00,0,Wunderground v.1.15,2013-05-27 06:35:00,
2013-05-27 02:40:00,37.5,-99.9,19.99,WSW,256,0.0,5.0,255,0.00,,,0.00,0,Wunderground v.1.15,2013-05-27 06:40:00,
2013-05-27 02:45:00,37.6,-99.9,19.99,WSW,256,0.0,5.0,255,0.00,,,0.00,0,Wunderground v.1.15,2013-05-27 06:45:00,
2013-05-27 02:50:00,37.5,-99.9,20.00,WSW,256,2.0,5.0,255,0.00,,,0.00,0,Wunderground v.1.15,2013-05-27 06:50:00,
2013-05-27 02:55:00,36.4,-99.9,19.99,WSW,256,1.0,5.0,255,0.00,,,0.00,0,Wunderground v.1.15,2013-05-27 06:55:00,
2013-05-27 03:05:00,37.2,-99.9,19.99,WSW,256,0.0,5.0,255,0.00,,,0.00,0,Wunderground v.1.15,2013-05-27 07:05:00,
2013-05-27 03:15:00,36.9,-99.9,19.99,WSW,256,0.0,3.0,255,0.00,,,0.00,0,Wunderground v.1.15,2013-05-27 07:15:00,
2013-05-27 03:20:00,36.9,-99.9,19.99,WSW,256,0.0,3.0,255,0.00,,,0.00,0,Wunderground v.1.15,2013-05-27 07:20:00,
2013-05-27 03:25:00,37.7,-99.9,19.99,WSW,256,0.0,3.0,255,0.00,,,0.00,0,Wunderground v.1.15,2013-05-27 07:25:00,
2013-05-27 03:30:00,36.8,-99.9,19.99,WSW,256,0.0,3.0,255,0.00,,,0.00,0,Wunderground v.1.15,2013-05-27 07:30:00,
2013-05-27 03:40:00,37.6,-99.9,19.99,WSW,256,0.0,3.0,255,0.00,,,0.00,0,Wunderground v.1.15,2013-05-27 07:40:00,
2013-05-27 03:45:00,37.9,-99.9,19.99,WSW,256,0.0,3.0,255,0.00,,,0.00,0,Wunderground v.1.15,2013-05-27 07:45:00,
2013-05-27 03:55:00,37.9,-99.9,20.00,WSW,256,1.0,3.0,255,0.00,,,0.00,0,Wunderground v.1.15,2013-05-27 07:55:00,
2013-05-27 04:00:00,37.8,-99.9,19.99,WSW,256,1.0,3.0,255,0.00,,,0.00,0,Wunderground v.1.15,2013-05-27 08:00:00,
2013-05-27 04:05:00,38.8,-99.9,19.99,WSW,256,0.0,3.0,255,0.00,,,0.00,0,Wunderground v.1.15,2013-05-27 08:05:00,
2013-05-27 04:10:00,38.6,-99.9,19.99,WSW,256,0.0,3.0,255,0.00,,,0.00,0,Wunderground v.1.15,2013-05-27 08:10:00,
2013-05-27 04:15:00,38.8,-99.9,19.99,WSW,256,0.0,3.0,255,0.00,,,0.00,0,Wunderground v.1.15,2013-05-27 08:15:00,
2013-05-27 04:25:00,39.5,-99.9,19.99,West,261,3.0,3.0,255,0.00,,,0.00,0,Wunderground v.1.15,2013-05-27 08:25:00,
2013-05-27 04:30:00,39.7,-99.9,19.99,West,261,2.0,3.0,255,0.00,,,0.00,0,Wunderground v.1.15,2013-05-27 08:30:00,
2013-05-27 04:35:00,39.3,-99.9,19.99,West,261,1.0,3.0,255,0.00,,,0.00,0,Wunderground v.1.15,2013-05-27 08:35:00,
2013-05-27 04:45:00,39.1,-99.9,19.99,West,261,1.0,3.0,255,0.00,,,0.00,0,Wunderground v.1.15,2013-05-27 08:45:00,
2013-05-27 04:50:00,39.4,-99.9,19.99,West,261,1.0,3.0,255,0.00,,,0.00,0,Wunderground v.1.15,2013-05-27 08:50:00,
2013-05-27 04:55:00,38.8,-99.9,19.99,West,261,0.0,3.0,255,0.00,,,0.00,0,Wunderground v.1.15,2013-05-27 08:55:00,
2013-05-27 05:00:00,38.9,-99.9,19.99,West,261,1.0,3.0,255,0.00,,,0.00,0,Wunderground v.1.15,2013-05-27 09:00:00,
2013-05-27 05:05:00,39.1,-99.9,19.99,West,261,2.0,3.0,255,0.00,,,0.00,0,Wunderground v.1.15,2013-05-27 09:05:00,
2013-05-27 05:10:00,39.3,-99.9,19.99,West,261,0.0,3.0,255,0.00,,,0.00,0,Wunderground v.1.15,2013-05-27 09:10:00,
2013-05-27 05:15:00,39.2,-99.9,19.99,West,261,0.0,3.0,255,0.00,,,0.00,0,Wunderground v.1.15,2013-05-27 09:15:00,
2013-05-27 05:20:00,39.6,-99.9,19.99,West,261,0.0,3.0,255,0.00,,,0.00,0,Wunderground v.1.15,2013-05-27 09:20:00,
2013-05-27 05:25:00,39.6,-99.9,19.99,West,261,0.0,3.0,255,0.00,,,0.00,0,Wunderground v.1.15,2013-05-27 09:25:00,
2013-05-27 05:35:00,39.4,-99.9,19.99,West,261,0.0,3.0,255,0.00,,,0.00,0,Wunderground v.1.15,2013-05-27 09:35:00,
2013-05-27 05:40:00,39.3,-99.9,19.99,West,261,0.0,3.0,255,0.00,,,0.00,0,Wunderground v.1.15,2013-05-27 09:40:00,
2013-05-27 05:50:00,39.2,-99.9,19.99,West,261,0.0,3.0,255,0.00,,,0.00,0,Wunderground v.1.15,2013-05-27 09:50:00,
2013-05-27 05:55:00,39.5,-99.9,19.99,West,261,2.0,3.0,255,0.00,,,0.00,0,Wunderground v.1.15,2013-05-27 09:55:00,
2013-05-27 06:00:00,39.7,-99.9,19.99,West,261,0.0,3.0,255,0.00,,,0.00,0,Wunderground v.1.15,2013-05-27 10:00:00,
2013-05-27 06:05:00,39.7,-99.9,19.99,West,261,2.0,3.0,255,0.00,,,0.00,0,Wunderground v.1.15,2013-05-27 10:05:00,
2013-05-27 06:10:00,39.8,-99.9,19.99,West,261,0.0,3.0,255,0.00,,,0.00,0,Wunderground v.1.15,2013-05-27 10:10:00,
2013-05-27 06:20:00,39.7,-99.9,19.99,West,261,0.0,3.0,255,0.00,,,0.00,0,Wunderground v.1.15,2013-05-27 10:20:00,
2013-05-27 06:25:00,40.6,-99.9,19.99,West,261,1.0,3.0,255,0.00,,,0.00,0,Wunderground v.1.15,2013-05-27 10:25:00,
2013-05-27 06:30:00,40.0,-99.9,19.99,West,261,4.0,4.0,255,0.00,,,0.00,0,Wunderground v.1.15,2013-05-27 10:30:00,
2013-05-27 06:40:00,41.0,-99.9,19.99,West,261,2.0,3.0,255,0.00,,,0.00,0,Wunderground v.1.15,2013-05-27 10:40:00,
2013-05-27 06:45:00,41.1,-99.9,19.99,West,261,0.0,3.0,255,0.00,,,0.00,0,Wunderground v.1.15,2013-05-27 10:45:00,
2013-05-27 06:55:00,41.1,-99.9,19.99,West,261,1.0,3.0,255,0.00,,,0.00,0,Wunderground v.1.15,2013-05-27 10:55:00,
2013-05-27 07:00:00,41.9,-99.9,20.00,West,261,0.0,3.0,255,0.00,,,0.00,0,Wunderground v.1.15,2013-05-27 11:00:00,
2013-05-27 07:05:00,41.5,-99.9,19.99,West,261,0.0,3.0,255,0.00,,,0.00,0,Wunderground v.1.15,2013-05-27 11:05:00,
2013-05-27 07:10:00,41.6,-99.9,20.00,West,261,1.0,3.0,255,0.00,,,0.00,0,Wunderground v.1.15,2013-05-27 11:10:00,
2013-05-27 07:15:00,41.7,-99.9,19.99,West,261,1.0,3.0,255,0.00,,,0.00,0,Wunderground v.1.15,2013-05-27 11:15:00,
2013-05-27 07:25:00,42.6,-99.9,19.99,West,261,0.0,3.0,255,0.00,,,0.00,0,Wunderground v.1.15,2013-05-27 11:25:00,
2013-05-27 07:30:00,42.5,-99.9,20.00,West,261,2.0,3.0,255,0.00,,,0.00,0,Wunderground v.1.15,2013-05-27 11:30:00,
2013-05-27 07:35:00,42.7,-99.9,19.99,West,261,4.0,4.0,255,0.00,,,0.00,0,Wunderground v.1.15,2013-05-27 11:35:00,
2013-05-27 07:45:00,43.2,-99.9,20.00,WNW,303,3.0,3.0,255,0.00,,,0.00,0,Wunderground v.1.15,2013-05-27 11:45:00,
2013-05-27 07:50:00,43.3,-99.9,19.99,WNW,303,1.0,3.0,255,0.00,,,0.00,0,Wunderground v.1.15,2013-05-27 11:50:00,
2013-05-27 07:55:00,43.9,-99.9,20.00,WNW,303,3.0,3.0,255,0.00,,,0.00,0,Wunderground v.1.15,2013-05-27 11:55:00,
2013-05-27 08:00:00,44.0,-99.9,19.99,North,4,1.0,3.0,255,0.00,,,0.00,0,Wunderground v.1.15,2013-05-27 12:00:00,
2013-05-27 08:05:00,45.0,-99.9,19.99,North,4,3.0,3.0,255,0.00,,,0.00,0,Wunderground v.1.15,2013-05-27 12:05:00,
2013-05-27 08:10:00,45.0,-99.9,20.00,North,9,5.0,5.0,255,0.00,,,0.00,0,Wunderground v.1.15,2013-05-27 12:10:00,
2013-05-27 08:15:00,45.2,-99.9,20.00,North,350,4.0,5.0,255,0.00,,,0.00,0,Wunderground v.1.15,2013-05-27 12:15:00,
2013-05-27 08:20:00,45.5,-99.9,20.00,NNE,12,3.0,3.0,255,0.00,,,0.00,0,Wunderground v.1.15,2013-05-27 12:20:00,
2013-05-27 08:25:00,45.7,-99.9,19.99,NNE,12,4.0,4.0,255,0.00,,,0.00,0,Wunderground v.1.15,2013-05-27 12:25:00,
2013-05-27 08:35:00,46.5,-99.9,19.99,NNE,12,2.0,4.0,255,0.00,,,0.00,0,Wunderground v.1.15,2013-05-27 12:35:00,
2013-05-27 08:45:00,46.8,-99.9,19.99,NNE,12,4.0,4.0,255,0.00,,,0.00,0,Wunderground v.1.15,2013-05-27 12:45:00,
2013-05-27 08:50:00,47.3,-99.9,19.99,NNE,12,3.0,3.0,255,0.00,,,0.00,0,Wunderground v.1.15,2013-05-27 12:50:00,
2013-05-27 08:55:00,47.2,-99.9,20.00,NNE,12,4.0,4.0,255,0.00,,,0.00,0,Wunderground v.1.15,2013-05-27 12:55:00,
2013-05-27 09:00:00,47.2,-99.9,19.99,NNE,12,0.0,3.0,255,0.00,,,0.00,0,Wunderground v.1.15,2013-05-27 13:00:00,
2013-05-27 09:10:00,47.9,-99.9,20.00,NNE,12,2.0,3.0,255,0.00,,,0.00,0,Wunderground v.1.15,2013-05-27 13:10:00,
2013-05-27 09:15:00,48.4,-99.9,19.99,NNE,12,4.0,4.0,255,0.00,,,0.00,0,Wunderground v.1.15,2013-05-27 13:15:00,
2013-05-27 09:20:00,48.6,-99.9,19.99,NNE,12,5.0,5.0,255,0.00,,,0.00,0,Wunderground v.1.15,2013-05-27 13:20:00,
2013-05-27 09:25:00,49.1,-99.9,19.99,NNE,12,3.0,5.0,255,0.00,,,0.00,0,Wunderground v.1.15,2013-05-27 13:25:00,
2013-05-27 09:30:00,49.7,-99.9,20.00,NNE,33,3.0,3.0,255,0.00,,,0.00,0,Wunderground v.1.15,2013-05-27 13:30:00,
2013-05-27 09:40:00,49.9,-99.9,20.00,NE,37,1.0,3.0,255,0.00,,,0.00,0,Wunderground v.1.15,2013-05-27 13:40:00,
2013-05-27 09:45:00,50.4,-99.9,20.00,NE,37,2.0,3.0,255,0.00,,,0.00,0,Wunderground v.1.15,2013-05-27 13:45:00,
2013-05-27 09:50:00,50.9,-99.9,20.00,NE,40,0.0,3.0,255,0.00,,,0.00,0,Wunderground v.1.15,2013-05-27 13:50:00,
2013-05-27 09:55:00,51.1,-99.9,20.00,North,11,0.0,3.0,255,0.00,,,0.00,0,Wunderground v.1.15,2013-05-27 13:55:00,
2013-05-27 10:00:00,51.7,-99.9,20.00,North,11,4.0,4.0,255,0.00,,,0.00,0,Wunderground v.1.15,2013-05-27 14:00:00,
2013-05-27 10:05:00,52.5,-99.9,20.00,North,8,6.0,6.0,255,0.00,,,0.00,0,Wunderground v.1.15,2013-05-27 14:05:00,
2013-05-27 10:15:00,53.5,-99.9,20.00,NNE,13,3.0,3.0,255,0.00,,,0.00,0,Wunderground v.1.15,2013-05-27 14:15:00,
2013-05-27 10:20:00,54.0,-99.9,20.00,SE,134,0.0,3.0,255,0.00,,,0.00,0,Wunderground v.1.15,2013-05-27 14:20:00,
2013-05-27 10:25:00,54.3,-99.9,20.00,NE,34,3.0,3.0,255,0.00,,,0.00,0,Wunderground v.1.15,2013-05-27 14:25:00,
2013-05-27 10:30:00,55.1,-99.9,20.00,NNE,28,4.0,4.0,255,0.00,,,0.00,0,Wunderground v.1.15,2013-05-27 14:30:00,
2013-05-27 10:35:00,55.7,-99.9,20.00,NNE,17,3.0,4.0,255,0.00,,,0.00,0,Wunderground v.1.15,2013-05-27 14:35:00,
2013-05-27 10:45:00,56.8,-99.9,20.00,NE,42,3.0,3.0,255,0.00,,,0.00,0,Wunderground v.1.15,2013-05-27 14:45:00,
2013-05-27 10:55:00,57.1,-99.9,20.00,ENE,75,3.0,5.0,255,0.00,,,0.00,0,Wunderground v.1.15,2013-05-27 14:55:00,
2013-05-27 11:00:00,57.7,-99.9,20.00,ENE,61,7.0,7.0,255,0.00,,,0.00,0,Wunderground v.1.15,2013-05-27 15:00:00,
2013-05-27 11:05:00,57.8,-99.9,20.00,NNE,19,8.0,8.0,255,0.00,,,0.00,0,Wunderground v.1.15,2013-05-27 15:05:00,
2013-05-27 11:10:00,58.2,-99.9,20.00,NNE,24,5.0,5.0,255,0.00,,,0.00,0,Wunderground v.1.15,2013-05-27 15:10:00,
2013-05-27 11:15:00,59.5,-99.9,20.00,NE,54,8.0,8.0,255,0.00,,,0.00,0,Wunderground v.1.15,2013-05-27 15:15:00,
2013-05-27 11:20:00,58.7,-99.9,19.99,NE,46,4.0,4.0,255,0.00,,,0.00,0,Wunderground v.1.15,2013-05-27 15:20:00,
2013-05-27 11:25:00,59.5,-99.9,20.00,NE,39,9.0,9.0,255,0.00,,,0.00,0,Wunderground v.1.15,2013-05-27 15:25:00,
2013-05-27 11:30:00,59.1,-99.9,20.00,NNE,12,4.0,4.0,255,0.00,,,0.00,0,Wunderground v.1.15,2013-05-27 15:30:00,
2013-05-27 11:35:00,60.1,-99.9,20.00,NE,49,5.0,5.0,255,0.00,,,0.00,0,Wunderground v.1.15,2013-05-27 15:35:00,
2013-05-27 11:40:00,60.3,-99.9,20.00,North,9,2.0,3.0,255,0.00,,,0.00,0,Wunderground v.1.15,2013-05-27 15:40:00,
2013-05-27 11:50:00,61.1,-99.9,20.00,ESE,109,4.0,4.0,255,0.00,,,0.00,0,Wunderground v.1.15,2013-05-27 15:50:00,
2013-05-27 12:00:00,60.5,-99.9,20.00,ENE,62,4.0,4.0,255,0.00,,,0.00,0,Wunderground v.1.15,2013-05-27 16:00:00,
2013-05-27 12:05:00,61.8,-99.9,20.00,SSW,197,2.0,4.0,255,0.00,,,0.00,0,Wunderground v.1.15,2013-05-27 16:05:00,
2013-05-27 12:10:00,61.8,-99.9,20.00,NNE,12,5.0,5.0,255,0.00,,,0.00,0,Wunderground v.1.15,2013-05-27 16:10:00,
2013-05-27 12:15:00,62.5,-99.9,20.00,NE,46,5.0,5.0,255,0.00,,,0.00,0,Wunderground v.1.15,2013-05-27 16:15:00,
2013-05-27 12:20:00,62.9,-99.9,20.00,NE,35,4.0,4.0,255,0.00,,,0.00,0,Wunderground v.1.15,2013-05-27 16:20:00,
2013-05-27 12:30:00,63.3,-99.9,20.00,NE,49,7.0,7.0,255,0.00,,,0.00,0,Wunderground v.1.15,2013-05-27 16:30:00,
2013-05-27 12:35:00,63.1,-99.9,20.00,NE,47,6.0,7.0,255,0.00,,,0.00,0,Wunderground v.1.15,2013-05-27 16:35:00,
2013-05-27 12:40:00,62.9,-99.9,20.00,ENE,72,6.0,6.0,255,0.00,,,0.00,0,Wunderground v.1.15,2013-05-27 16:40:00,
2013-05-27 12:45:00,63.3,-99.9,19.99,NE,46,3.0,6.0,255,0.00,,,0.00,0,Wunderground v.1.15,2013-05-27 16:45:00,
2013-05-27 12:55:00,63.2,-99.9,20.00,NE,52,7.0,9.0,255,0.00,,,0.00,0,Wunderground v.1.15,2013-05-27 16:55:00,
2013-05-27 13:05:00,62.9,-99.9,20.00,NE,43,7.0,7.0,255,0.00,,,0.00,0,Wunderground v.1.15,2013-05-27 17:05:00,
2013-05-27 13:10:00,64.7,-99.9,20.00,NE,42,7.0,7.0,255,0.00,,,0.00,0,Wunderground v.1.15,2013-05-27 17:10:00,
2013-05-27 13:15:00,63.9,-99.9,19.99,NNE,28,5.0,7.0,255,0.00,,,0.00,0,Wunderground v.1.15,2013-05-27 17:15:00,
2013-05-27 13:20:00,65.0,-99.9,20.00,NE,50,5.0,5.0,255,0.00,,,0.00,0,Wunderground v.1.15,2013-05-27 17:20:00,
2013-05-27 13:25:00,64.5,-99.9,20.00,NE,41,6.0,6.0,255,0.00,,,0.00,0,Wunderground v.1.15,2013-05-27 17:25:00,
2013-05-27 13:30:00,67.5,-99.9,20.00,ESE,121,2.0,3.0,255,0.00,,,0.00,0,Wunderground v.1.15,2013-05-27 17:30:00,
2013-05-27 13:35:00,64.4,-99.9,19.99,NNE,28,6.0,6.0,255,0.00,,,0.00,0,Wunderground v.1.15,2013-05-27 17:35:00,
2013-05-27 13:40:00,66.1,-99.9,20.00,NNE,20,7.0,7.0,255,0.00,,,0.00,0,Wunderground v.1.15,2013-05-27 17:40:00,
2013-05-27 13:50:00,66.0,-99.9,20.00,NNE,31,5.0,5.0,255,0.00,,,0.00,0,Wunderground v.1.15,2013-05-27 17:50:00,
2013-05-27 13:55:00,67.0,-99.9,20.00,North,9,4.0,5.0,255,0.00,,,0.00,0,Wunderground v.1.15,2013-05-27 17:55:00,
2013-05-27 14:00:00,69.2,-99.9,20.00,ESE,118,1.0,3.0,255,0.00,,,0.00,0,Wunderground v.1.15,2013-05-27 18:00:00,
2013-05-27 14:05:00,67.8,-99.9,20.00,NNE,13,7.0,7.0,255,0.00,,,0.00,0,Wunderground v.1.15,2013-05-27 18:05:00,
2013-05-27 14:15:00,67.3,-99.9,20.00,NNE,32,8.0,8.0,255,0.00,,,0.00,0,Wunderground v.1.15,2013-05-27 18:15:00,
2013-05-27 14:20:00,67.7,-99.9,20.00,NE,46,2.0,3.0,255,0.00,,,0.00,0,Wunderground v.1.15,2013-05-27 18:20:00,
2013-05-27 14:25:00,67.6,-99.9,20.00,NE,42,5.0,5.0,255,0.00,,,0.00,0,Wunderground v.1.15,2013-05-27 18:25:00,
2013-05-27 14:30:00,66.9,-99.9,20.00,NE,40,8.0,8.0,255,0.00,,,0.00,0,Wunderground v.1.15,2013-05-27 18:30:00,
2013-05-27 14:35:00,68.7,-99.9,20.00,ESE,123,5.0,8.0,255,0.00,,,0.00,0,Wunderground v.1.15,2013-05-27 18:35:00,
2013-05-27 14:45:00,68.4,-99.9,19.99,NE,54,4.0,7.0,255,0.00,,,0.00,0,Wunderground v.1.15,2013-05-27 18:45:00,
2013-05-27 14:55:00,70.4,-99.9,20.00,East,100,3.0,7.0,255,0.00,,,0.00,0,Wunderground v.1.15,2013-05-27 18:55:00,
2013-05-27 15:00:00,69.5,-99.9,20.00,NE,40,3.0,3.0,255,0.00,,,0.00,0,Wunderground v.1.15,2013-05-27 19:00:00,
2013-05-27 15:05:00,71.2,-99.9,20.00,NE,44,2.0,3.0,255,0.00,,,0.00,0,Wunderground v.1.15,2013-05-27 19:05:00,
2013-05-27 15:10:00,70.6,-99.9,20.00,NE,35,1.0,3.0,255,0.00,,,0.00,0,Wunderground v.1.15,2013-05-27 19:10:00,
2013-05-27 15:20:00,71.0,-99.9,20.00,NNE,33,6.0,6.0,255,0.00,,,0.00,0,Wunderground v.1.15,2013-05-27 19:20:00,
2013-05-27 15:25:00,69.7,-99.9,20.00,NE,38,2.0,6.0,255,0.00,,,0.00,0,Wunderground v.1.15,2013-05-27 19:25:00,
2013-05-27 15:30:00,71.5,-99.9,20.00,East,91,4.0,4.0,255,0.00,,,0.00,0,Wunderground v.1.15,2013-05-27 19:30:00,
2013-05-27 15:35:00,69.2,-99.9,20.00,NE,38,4.0,4.0,255,0.00,,,0.00,0,Wunderground v.1.15,2013-05-27 19:35:00,
2013-05-27 15:40:00,70.3,-99.9,20.00,NE,46,4.0,4.0,255,0.00,,,0.00,0,Wunderground v.1.15,2013-05-27 19:40:00,
2013-05-27 15:45:00,69.4,-99.9,20.00,NE,42,8.0,8.0,255,0.00,,,0.00,0,Wunderground v.1.15,2013-05-27 19:45:00,
2013-05-27 15:55:00,69.1,-99.9,20.00,NNE,28,3.0,8.0,255,0.00,,,0.00,0,Wunderground v.1.15,2013-05-27 19:55:00,
2013-05-27 16:05:00,71.7,-99.9,20.00,NE,38,0.0,3.0,255,0.00,,,0.00,0,Wunderground v.1.15,2013-05-27 20:05:00,
2013-05-27 16:10:00,72.3,-99.9,20.00,East,79,2.0,3.0,255,0.00,,,0.00,0,Wunderground v.1.15,2013-05-27 20:10:00,
2013-05-27 16:15:00,71.0,-99.9,20.00,NE,42,5.0,5.0,255,0.00,,,0.00,0,Wunderground v.1.15,2013-05-27 20:15:00,
2013-05-27 16:20:00,71.1,-99.9,20.00,ENE,63,7.0,7.0,255,0.00,,,0.00,0,Wunderground v.1.15,2013-05-27 20:20:00,
2013-05-27 16:30:00,71.6,-99.9,20.00,NE,44,4.0,4.0,255,0.00,,,0.00,0,Wunderground v.1.15,2013-05-27 20:30:00,
2013-05-27 16:35:00,71.5,-99.9,20.00,NNW,345,2.0,4.0,255,0.00,,,0.00,0,Wunderground v.1.15,2013-05-27 20:35:00,
2013-05-27 16:40:00,71.8,-99.9,20.00,East,86,2.0,3.0,255,0.00,,,0.00,0,Wunderground v.1.15,2013-05-27 20:40:00,
2013-05-27 16:45:00,72.4,-99.9,20.00,NE,45,2.0,3.0,255,0.00,,,0.00,0,Wunderground v.1.15,2013-05-27 20:45:00,
2013-05-27 16:50:00,74.4,-99.9,19.99,NE,45,0.0,3.0,255,0.00,,,0.00,0,Wunderground v.1.15,2013-05-27 20:50:00,
2013-05-27 17:00:00,73.1,-99.9,20.00,SE,139,0.0,3.0,255,0.00,,,0.00,0,Wunderground v.1.15,2013-05-27 21:00:00,
2013-05-27 17:10:00,72.4,-99.9,20.00,NE,39,3.0,3.0,255,0.00,,,0.00,0,Wunderground v.1.15,2013-05-27 21:10:00,
2013-05-27 17:15:00,72.7,-99.9,20.00,ENE,63,1.0,3.0,255,0.00,,,0.00,0,Wunderground v.1.15,2013-05-27 21:15:00,
2013-05-27 17:20:00,71.7,-99.9,20.00,North,0,4.0,4.0,255,0.00,,,0.00,0,Wunderground v.1.15,2013-05-27 21:20:00,
2013-05-27 17:25:00,73.8,-99.9,20.00,North,0,0.0,4.0,255,0.00,,,0.00,0,Wunderground v.1.15,2013-05-27 21:25:00,
2013-05-27 17:35:00,72.6,-99.9,20.00,North,0,0.0,3.0,255,0.00,,,0.00,0,Wunderground v.1.15,2013-05-27 21:35:00,
2013-05-27 17:40:00,72.8,-99.9,20.00,North,0,2.0,3.0,255,0.00,,,0.00,0,Wunderground v.1.15,2013-05-27 21:40:00,
2013-05-27 17:45:00,72.0,-99.9,20.00,ENE,74,3.0,3.0,255,0.00,,,0.00,0,Wunderground v.1.15,2013-05-27 21:45:00,
2013-05-27 17:50:00,73.0,-99.9,20.00,ENE,72,2.0,3.0,255,0.00,,,0.00,0,Wunderground v.1.15,2013-05-27 21:50:00,
2013-05-27 17:55:00,72.3,-99.9,20.00,NNE,26,0.0,3.0,255,0.00,,,0.00,0,Wunderground v.1.15,2013-05-27 21:55:00,
2013-05-27 18:05:00,72.8,-99.9,20.00,NE,54,2.0,5.0,255,0.00,,,0.00,0,Wunderground v.1.15,2013-05-27 22:05:00,
2013-05-27 18:15:00,72.1,-99.9,20.00,ESE,102,0.0,8.0,255,0.00,,,0.00,0,Wunderground v.1.15,2013-05-27 22:15:00,
2013-05-27 18:20:00,72.0,-99.9,20.00,ESE,103,0.0,8.0,255,0.00,,,0.00,0,Wunderground v.1.15,2013-05-27 22:20:00,
2013-05-27 18:25:00,72.0,-99.9,20.00,ESE,103,0.0,8.0,255,0.00,,,0.00,0,Wunderground v.1.15,2013-05-27 22:25:00,
2013-05-27 18:35:00,70.9,-99.9,20.00,ESE,103,0.0,8.0,255,0.00,,,0.00,0,Wunderground v.1.15,2013-05-27 22:35:00,
2013-05-27 18:40:00,69.5,-99.9,20.00,ESE,102,1.0,8.0,255,0.00,,,0.00,0,Wunderground v.1.15,2013-05-27 22:40:00,
2013-05-27 18:45:00,69.3,-99.9,20.00,ESE,102,2.0,8.0,255,0.00,,,0.00,0,Wunderground v.1.15,2013-05-27 22:45:00,
2013-05-27 18:55:00,67.8,-99.9,20.00,ENE,77,0.0,8.0,255,0.00,,,0.00,0,Wunderground v.1.15,2013-05-27 22:55:00,
2013-05-27 19:00:00,66.7,-99.9,20.00,ENE,77,1.0,8.0,255,0.00,,,0.00,0,Wunderground v.1.15,2013-05-27 23:00:00,
2013-05-27 19:05:00,66.7,-99.9,20.00,ENE,77,0.0,8.0,255,0.00,,,0.00,0,Wunderground v.1.15,2013-05-27 23:05:00,
2013-05-27 19:10:00,66.0,-99.9,20.00,ENE,77,0.0,8.0,255,0.00,,,0.00,0,Wunderground v.1.15,2013-05-27 23:10:00,
2013-05-27 19:15:00,65.8,-99.9,20.00,ENE,77,0.0,8.0,255,0.00,,,0.00,0,Wunderground v.1.15,2013-05-27 23:15:00,
2013-05-27 19:20:00,65.2,-99.9,20.00,ENE,77,0.0,8.0,255,0.00,,,0.00,0,Wunderground v.1.15,2013-05-27 23:20:00,
2013-05-27 19:30:00,64.3,-99.9,20.00,ENE,77,0.0,8.0,255,0.00,,,0.00,0,Wunderground v.1.15,2013-05-27 23:30:00,
2013-05-27 19:40:00,62.8,-99.9,20.00,ENE,72,0.0,8.0,255,0.00,,,0.00,0,Wunderground v.1.15,2013-05-27 23:40:00,
2013-05-27 19:45:00,62.4,-99.9,20.00,ENE,72,0.0,8.0,255,0.00,,,0.00,0,Wunderground v.1.15,2013-05-27 23:45:00,
2013-05-27 19:50:00,62.6,-99.9,20.00,North,1,2.0,8.0,255,0.00,,,0.00,0,Wunderground v.1.15,2013-05-27 23:50:00,
2013-05-27 19:55:00,61.9,-99.9,20.00,North,2,0.0,8.0,255,0.00,,,0.00,0,Wunderground v.1.15,2013-05-27 23:55:00,
2013-05-27 20:05:00,60.9,-99.9,20.00,North,2,0.0,8.0,255,0.00,,,0.00,0,Wunderground v.1.15,2013-05-28 00:05:00,
2013-05-27 20:10:00,60.7,-99.9,20.00,North,1,1.0,8.0,255,0.00,,,0.00,0,Wunderground v.1.15,2013-05-28 00:10:00,
2013-05-27 20:15:00,59.9,-99.9,20.00,North,0,3.0,8.0,255,0.00,,,0.00,0,Wunderground v.1.15,2013-05-28 00:15:00,
2013-05-27 20:20:00,59.2,-99.9,20.00,WNW,292,5.0,8.0,255,0.00,,,0.00,0,Wunderground v.1.15,2013-05-28 00:20:00,
2013-05-27 20:25:00,58.6,-99.9,20.00,West,281,2.0,8.0,255,0.00,,,0.00,0,Wunderground v.1.15,2013-05-28 00:25:00,
2013-05-27 20:35:00,58.5,-99.9,20.00,WNW,282,1.0,8.0,255,0.00,,,0.00,0,Wunderground v.1.15,2013-05-28 00:35:00,
2013-05-27 20:45:00,57.8,-99.9,20.00,WNW,282,2.0,8.0,255,0.00,,,0.00,0,Wunderground v.1.15,2013-05-28 00:45:00,
2013-05-27 20:50:00,57.1,-99.9,20.00,WNW,282,4.0,8.0,255,0.00,,,0.00,0,Wunderground v.1.15,2013-05-28 00:50:00,
2013-05-27 20:55:00,56.4,-99.9,19.99,West,260,4.0,8.0,255,0.00,,,0.00,0,Wunderground v.1.15,2013-05-28 00:55:00,
2013-05-27 21:00:00,56.2,-99.9,20.00,West,270,4.0,8.0,255,0.00,,,0.00,0,Wunderground v.1.15,2013-05-28 01:00:00,
2013-05-27 21:10:00,57.4,-99.9,19.99,West,272,1.0,8.0,255,0.00,,,0.00,0,Wunderground v.1.15,2013-05-28 01:10:00,
2013-05-27 21:15:00,56.7,-99.9,20.00,West,272,2.0,8.0,255,0.00,,,0.00,0,Wunderground v.1.15,2013-05-28 01:15:00,
2013-05-27 21:20:00,55.8,-99.9,20.00,West,272,5.0,8.0,255,0.00,,,0.00,0,Wunderground v.1.15,2013-05-28 01:20:00,
2013-05-27 21:25:00,55.5,-99.9,20.00,WSW,246,1.0,8.0,255,0.00,,,0.00,0,Wunderground v.1.15,2013-05-28 01:25:00,
2013-05-27 21:35:00,55.6,-99.9,20.00,WSW,246,3.0,8.0,255,0.00,,,0.00,0,Wunderground v.1.15,2013-05-28 01:35:00,
2013-05-27 21:45:00,54.9,-99.9,20.00,West,262,3.0,8.0,255,0.00,,,0.00,0,Wunderground v.1.15,2013-05-28 01:45:00,
2013-05-27 21:50:00,54.5,-99.9,20.00,West,262,0.0,8.0,255,0.00,,,0.00,0,Wunderground v.1.15,2013-05-28 01:50:00,
2013-05-27 21:55:00,54.4,-99.9,20.00,SW,231,4.0,8.0,255,0.00,,,0.00,0,Wunderground v.1.15,2013-05-28 01:55:00,
2013-05-27 22:00:00,54.5,-99.9,20.00,SW,229,3.0,8.0,255,0.00,,,0.00,0,Wunderground v.1.15,2013-05-28 02:00:00,
2013-05-27 22:05:00,53.9,-99.9,20.00,SW,229,2.0,8.0,255,0.00,,,0.00,0,Wunderground v.1.15,2013-05-28 02:05:00,
2013-05-27 22:10:00,53.2,-99.9,20.00,SW,229,0.0,8.0,255,0.00,,,0.00,0,Wunderground v.1.15,2013-05-28 02:10:00,
2013-05-27 22:20:00,52.3,-99.9,20.00,SW,229,3.0,8.0,255,0.00,,,0.00,0,Wunderground v.1.15,2013-05-28 02:20:00,
2013-05-27 22:25:00,53.5,-99.9,20.00,SW,229,1.0,8.0,255,0.00,,,0.00,0,Wunderground v.1.15,2013-05-28 02:25:00,
2013-05-27 22:35:00,51.6,-99.9,20.00,SW,229,3.0,8.0,255,0.00,,,0.00,0,Wunderground v.1.15,2013-05-28 02:35:00,
2013-05-27 22:40:00,52.6,-99.9,20.00,SW,229,4.0,8.0,255,0.00,,,0.00,0,Wunderground v.1.15,2013-05-28 02:40:00,
2013-05-27 22:45:00,52.8,-99.9,20.00,SW,229,0.0,8.0,255,0.00,,,0.00,0,Wunderground v.1.15,2013-05-28 02:45:00,
2013-05-27 22:55:00,49.6,-99.9,20.00,SW,229,0.0,8.0,255,0.00,,,0.00,0,Wunderground v.1.15,2013-05-28 02:55:00,
2013-05-27 23:00:00,50.4,-99.9,20.00,SW,229,0.0,8.0,255,0.00,,,0.00,0,Wunderground v.1.15,2013-05-28 03:00:00,
2013-05-27 23:05:00,49.4,-99.9,20.00,SW,229,3.0,8.0,255,0.00,,,0.00,0,Wunderground v.1.15,2013-05-28 03:05:00,
2013-05-27 23:10:00,49.3,-99.9,20.00,SW,229,0.0,8.0,255,0.00,,,0.00,0,Wunderground v.1.15,2013-05-28 03:10:00,
2013-05-27 23:15:00,49.1,-99.9,20.00,SW,229,2.0,8.0,255,0.00,,,0.00,0,Wunderground v.1.15,2013-05-28 03:15:00,
2013-05-27 23:25:00,48.6,-99.9,20.00,SW,230,0.0,8.0,255,0.00,,,0.00,0,Wunderground v.1.15,2013-05-28 03:25:00,
2013-05-27 23:30:00,48.3,-99.9,20.00,SW,229,2.0,8.0,255,0.00,,,0.00,0,Wunderground v.1.15,2013-05-28 03:30:00,
2013-05-27 23:40:00,48.2,-99.9,20.00,SW,229,0.0,8.0,255,0.00,,,0.00,0,Wunderground v.1.15,2013-05-28 03:40:00,
2013-05-27 23:45:00,48.7,-99.9,20.00,SW,229,0.0,8.0,255,0.00,,,0.00,0,Wunderground v.1.15,2013-05-28 03:45:00,
2013-05-27 23:50:00,48.0,-99.9,20.00,SW,229,1.0,8.0,255,0.00,,,0.00,0,Wunderground v.1.15,2013-05-28 03:50:00,